User: anonymous   Login
Location: Huppendorf
(49.9333°N, 11.1500°E)
Time: 16:43:33
(UTC+00:00)
Language:

Cosmos 2208 Rocket - Orbit

View from above orbital plane
View from above orbital plane
View from above satellite
View from above satellite

Ground track
Ground track

The orbit data is extracted from the following two-line orbital elements,

1 22081U 92053B   20151.68067018 +.00000001 +00000-0 +96423-5 0  9997
2 22081 074.0445 266.7739 0036588 330.5892 029.3199 14.33478793453373
Epoch (UTC): 30 May 2020 16:20:09
Eccentricity: 0.0036588
inclination: 74.0445°
perigee height: 754 km
apogee height: 806 km
right ascension of ascending node: 266.7739°
argument of perigee: 330.5892°
revolutions per day: 14.33478793
mean anomaly at epoch: 29.3199°
orbit number at epoch: 45337

The dashed part of the orbit path shows where the satellite is in the earth's shadow,  

DLR